• In Uzbekistan
  • List of Countries
  • For 7 days
  • Water Temperature
  • Weather Map
  • Weather Widgets
  • user-avatar
    Login

    Hourly Weather Sosnowiec

    Today, 5 June, Friday

    Time Temperature Precipitation Wind Pressure Humidity
    00:00 +16°C° 0.1 mm 3 mps 722 mmHg 85%
    01:00 +16°C° 0.1 mm 3 mps 722 mmHg 86%
    02:00 +14°C° 0 mm 3 mps 721 mmHg 86%
    03:00 +15°C° 0 mm 2 mps 721 mmHg 86%
    04:00 +15°C° 0 mm 2 mps 721 mmHg 86%
    05:00 +16°C° 0 mm 3 mps 721 mmHg 83%
    06:00 +17°C° 0 mm 4 mps 721 mmHg 80%
    07:00 +18°C° 0 mm 4 mps 722 mmHg 76%
    08:00 +17°C° 0.1 mm 4 mps 722 mmHg 78%
    09:00 +17°C° 0.1 mm 4 mps 722 mmHg 79%
    10:00 +17°C° 0.1 mm 4 mps 722 mmHg 80%
    11:00 +17°C° 0.2 mm 4 mps 723 mmHg 82%
    12:00 +15°C° 0.2 mm 4 mps 723 mmHg 84%
    13:00 +15°C° 0.2 mm 5 mps 723 mmHg 85%
    14:00 +17°C° 0.1 mm 4 mps 724 mmHg 82%
    15:00 +17°C° 0.1 mm 3 mps 724 mmHg 80%
    16:00 +17°C° 0.1 mm 3 mps 724 mmHg 77%
    17:00 +17°C° 0.2 mm 3 mps 724 mmHg 81%
    18:00 +16°C° 0.2 mm 2 mps 724 mmHg 85%
    19:00 +15°C° 0.2 mm 2 mps 724 mmHg 90%
    20:00 +15°C° 0 mm 2 mps 725 mmHg 89%
    21:00 +14°C° 0 mm 3 mps 726 mmHg 88%
    22:00 +13°C° 0 mm 3 mps 726 mmHg 87%
    23:00 +13°C° 0 mm 3 mps 727 mmHg 87%

    Tomorrow, 6 June, Saturday

    Time Temperature Precipitation Wind Pressure Humidity
    00:00 +12°C° 0 mm 4 mps 727 mmHg 86%
    01:00 +12°C° 0 mm 4 mps 727 mmHg 86%
    02:00 +12°C° 0 mm 4 mps 728 mmHg 85%
    03:00 +12°C° 0 mm 4 mps 728 mmHg 84%
    04:00 +12°C° 0 mm 5 mps 729 mmHg 83%
    05:00 +13°C° 0 mm 5 mps 729 mmHg 78%
    06:00 +14°C° 0 mm 5 mps 730 mmHg 73%
    07:00 +16°C° 0 mm 6 mps 730 mmHg 68%
    08:00 +17°C° 0 mm 6 mps 731 mmHg 62%
    09:00 +20°C° 0 mm 6 mps 731 mmHg 56%
    10:00 +21°C° 0 mm 6 mps 731 mmHg 49%
    11:00 +22°C° 0 mm 6 mps 731 mmHg 48%
    12:00 +22°C° 0 mm 5 mps 731 mmHg 48%
    13:00 +23°C° 0 mm 5 mps 732 mmHg 47%
    14:00 +23°C° 0 mm 4 mps 731 mmHg 49%
    15:00 +24°C° 0 mm 3 mps 731 mmHg 52%
    16:00 +23°C° 0 mm 2 mps 731 mmHg 54%
    17:00 +21°C° 0 mm 2 mps 731 mmHg 60%
    18:00 +20°C° 0 mm 2 mps 731 mmHg 65%
    19:00 +19°C° 0 mm 2 mps 731 mmHg 70%
    20:00 +18°C° 0 mm 2 mps 731 mmHg 75%
    21:00 +17°C° 0 mm 2 mps 731 mmHg 79%
    22:00 +16°C° 0 mm 2 mps 731 mmHg 83%
    23:00 +16°C° 0 mm 1 mps 731 mmHg 85%

    Day after tomorrow, 7 June, Sunday

    Time Temperature Precipitation Wind Pressure Humidity
    00:00 +15°C° 0 mm 1 mps 731 mmHg 88%
    01:00 +15°C° 0 mm 1 mps 731 mmHg 90%
    02:00 +15°C° 0 mm 1 mps 731 mmHg 90%
    03:00 +15°C° 0 mm 1 mps 731 mmHg 90%
    04:00 +15°C° 0 mm 1 mps 731 mmHg 90%
    05:00 +16°C° 0.1 mm 1 mps 731 mmHg 87%
    06:00 +18°C° 0.1 mm 1 mps 731 mmHg 85%
    07:00 +19°C° 0.1 mm 1 mps 731 mmHg 83%
    08:00 +20°C° 0.3 mm 1 mps 731 mmHg 77%
    09:00 +22°C° 0.3 mm 1 mps 732 mmHg 72%
    10:00 +23°C° 0.3 mm 1 mps 732 mmHg 67%
    11:00 +23°C° 0.6 mm 1 mps 732 mmHg 71%
    12:00 +22°C° 0.6 mm 1 mps 732 mmHg 75%
    13:00 +22°C° 0.6 mm 1 mps 732 mmHg 79%
    14:00 +21°C° 1 mm 1 mps 732 mmHg 82%
    15:00 +20°C° 1 mm 1 mps 732 mmHg 85%
    16:00 +20°C° 1 mm 1 mps 732 mmHg 89%
    17:00 +20°C° 0.4 mm 1 mps 732 mmHg 89%
    18:00 +19°C° 0.4 mm 1 mps 732 mmHg 90%
    19:00 +19°C° 0.4 mm 1 mps 732 mmHg 91%
    20:00 +19°C° 1.2 mm 1 mps 732 mmHg 93%
    21:00 +18°C° 1.2 mm 1 mps 733 mmHg 94%
    22:00 +18°C° 1.2 mm 1 mps 733 mmHg 96%
    23:00 +17°C° 2.6 mm 2 mps 733 mmHg 96%

    8 June, Monday

    Time Temperature Precipitation Wind Pressure Humidity
    00:00 +17°C° 2.6 mm 2 mps 732 mmHg 96%
    01:00 +17°C° 2.6 mm 2 mps 732 mmHg 97%
    02:00 +16°C° 0.7 mm 3 mps 732 mmHg 96%
    03:00 +16°C° 0.7 mm 3 mps 732 mmHg 96%
    04:00 +16°C° 0.7 mm 3 mps 732 mmHg 96%
    05:00 +16°C° 0.1 mm 2 mps 732 mmHg 95%
    06:00 +16°C° 0.1 mm 2 mps 732 mmHg 95%
    07:00 +18°C° 0.1 mm 1 mps 732 mmHg 94%
    08:00 +19°C° 0.1 mm 1 mps 732 mmHg 89%
    09:00 +20°C° 0.1 mm 1 mps 732 mmHg 84%
    10:00 +21°C° 0.1 mm 1 mps 732 mmHg 79%
    11:00 +21°C° 0.3 mm 2 mps 732 mmHg 77%
    12:00 +21°C° 0.3 mm 2 mps 732 mmHg 76%
    13:00 +23°C° 0.3 mm 2 mps 732 mmHg 75%
    14:00 +21°C° 0.7 mm 3 mps 732 mmHg 79%
    15:00 +20°C° 0.7 mm 3 mps 732 mmHg 83%
    16:00 +19°C° 0.7 mm 3 mps 732 mmHg 86%
    17:00 +18°C° 0.1 mm 3 mps 732 mmHg 88%
    18:00 +17°C° 0.1 mm 3 mps 732 mmHg 90%
    19:00 +17°C° 0.1 mm 2 mps 732 mmHg 91%
    20:00 +16°C° 0 mm 2 mps 732 mmHg 92%
    21:00 +15°C° 0 mm 2 mps 733 mmHg 94%
    22:00 +15°C° 0 mm 2 mps 733 mmHg 95%
    23:00 +15°C° 0 mm 2 mps 733 mmHg 95%

    9 June, Tuesday

    Time Temperature Precipitation Wind Pressure Humidity
    00:00 +15°C° 0 mm 2 mps 733 mmHg 94%
    01:00 +15°C° 0 mm 2 mps 733 mmHg 94%
    02:00 +15°C° 0 mm 2 mps 733 mmHg 94%
    03:00 +15°C° 0 mm 1 mps 733 mmHg 94%
    04:00 +15°C° 0 mm 1 mps 733 mmHg 94%
    05:00 +15°C° 0 mm 1 mps 734 mmHg 93%
    06:00 +16°C° 0 mm 1 mps 734 mmHg 92%
    07:00 +16°C° 0 mm 1 mps 734 mmHg 91%
    08:00 +18°C° 0 mm 1 mps 734 mmHg 88%
    09:00 +18°C° 0 mm 1 mps 734 mmHg 84%
    10:00 +19°C° 0 mm 1 mps 735 mmHg 81%
    11:00 +20°C° 0 mm 1 mps 735 mmHg 77%
    12:00 +20°C° 0 mm 2 mps 735 mmHg 72%
    13:00 +21°C° 0 mm 2 mps 735 mmHg 67%
    14:00 +21°C° 0.1 mm 2 mps 734 mmHg 71%
    15:00 +20°C° 0.1 mm 2 mps 734 mmHg 75%
    16:00 +19°C° 0.1 mm 2 mps 734 mmHg 80%
    17:00 +19°C° 0.1 mm 2 mps 734 mmHg 82%
    18:00 +19°C° 0.1 mm 2 mps 734 mmHg 84%
    19:00 +18°C° 0.1 mm 2 mps 734 mmHg 86%
    20:00 +18°C° 0 mm 2 mps 734 mmHg 88%
    21:00 +17°C° 0 mm 2 mps 735 mmHg 90%
    22:00 +16°C° 0 mm 2 mps 735 mmHg 92%
    23:00 +16°C° 0 mm 2 mps 735 mmHg 93%

    10 June, Wednesday

    Time Temperature Precipitation Wind Pressure Humidity
    00:00 +16°C° 0 mm 2 mps 735 mmHg 94%
    01:00 +15°C° 0 mm 2 mps 735 mmHg 95%
    02:00 +15°C° 0.4 mm 2 mps 735 mmHg 96%
    03:00 +15°C° 0.4 mm 2 mps 735 mmHg 96%
    04:00 +15°C° 0.4 mm 2 mps 735 mmHg 96%
    05:00 +16°C° 1.5 mm 2 mps 735 mmHg 96%
    06:00 +16°C° 1.5 mm 2 mps 735 mmHg 96%
    07:00 +16°C° 1.5 mm 2 mps 735 mmHg 96%
    08:00 +16°C° 0.5 mm 2 mps 735 mmHg 95%
    09:00 +17°C° 0.5 mm 2 mps 736 mmHg 94%
    10:00 +17°C° 0.5 mm 2 mps 736 mmHg 92%
    11:00 +18°C° 0.4 mm 2 mps 736 mmHg 92%
    12:00 +18°C° 0.4 mm 3 mps 736 mmHg 91%
    13:00 +18°C° 0.4 mm 3 mps 736 mmHg 91%
    14:00 +19°C° 0.1 mm 3 mps 736 mmHg 88%
    15:00 +19°C° 0.1 mm 3 mps 736 mmHg 86%
    16:00 +19°C° 0.1 mm 3 mps 736 mmHg 83%
    17:00 +19°C° 0.1 mm 3 mps 737 mmHg 85%
    18:00 +19°C° 0.1 mm 2 mps 737 mmHg 87%
    19:00 +18°C° 0.1 mm 2 mps 737 mmHg 89%
    20:00 +18°C° 0 mm 2 mps 737 mmHg 90%
    21:00 +18°C° 0 mm 2 mps 737 mmHg 92%
    22:00 +17°C° 0 mm 2 mps 738 mmHg 94%
    23:00 +17°C° 0.1 mm 2 mps 738 mmHg 94%
    Show more